Regional Weather Roundup
Issued by NWS Cleveland, OH

Home | Current Version | Previous Version | Graphics & Text | Print | Product List | Glossary On
Versions: 1 2 3 4 5 6 7 8 9 10 11 12 13 14 15 16 17 18 19 20 21 22 23 24 25 26 27 28 29 30 31 32 33 34 35 36 37 38 39 40 41 42 43 44 45 46 47 48 49 50
000
ASUS41 KCLE 312312
RWRCLE
OHIO REGIONAL WEATHER ROUNDUP
NATIONAL WEATHER SERVICE WILMINGTON, OH
700 PM EDT WED AUG 31 2016

NOTE: "FAIR" INDICATES FEW OR NO CLOUDS BELOW 12,000 FEET WITH NO
SIGNIFICANT WEATHER AND/OR OBSTRUCTIONS TO VISIBILITY.

OHZ001>008-015>018-024>027-034-035-043-044-010000-
   NORTHWEST OHIO

CITY           SKY/WX    TMP DP  RH WIND       PRES   REMARKS
DEFIANCE       PTSUNNY   76  65  68 N10       29.97R
FINDLAY        FAIR      78  65  63 NE13      29.94R
TOLEDO EXPRESS FAIR      75  65  70 N12       29.97R
TOLEDO EXEC    CLOUDY    77  70  79 NE7       29.97R
LIMA           FAIR      77  71  82 NW6       29.95S
$$

OHZ009>014-019>023-028>033-038-089-010000-
   NORTHEAST OHIO

CITY           SKY/WX    TMP DP  RH WIND       PRES   REMARKS
CLE-HOPKINS    CLOUDY    77  65  66 N16       29.97R
CLE-LAKEFRONT  CLOUDY    76  66  71 N16       29.93S
CUY CO. ARPT   CLOUDY    75  70  83 N14       29.95S
LORAIN-ELYRIA  PTSUNNY   74  65  73 NE14      29.96R
ASHTABULA      CLOUDY    73  69  87 N8        29.96R
AKRON-CANTON   HVY RAIN  71  68  90 SW6       29.95S FOG
WOOSTER        CLOUDY    70  68  93 CALM      29.96R
MANSFIELD      PTSUNNY   76  68  76 N10       29.96S
YOUNGSTOWN     LGT RAIN  70  68  93 S5        29.95S
$$

OHZ042-051>053-060>062-070>072-077>081-010000-
  SOUTHWEST OHIO

CITY           SKY/WX    TMP DP  RH WIND       PRES   REMARKS
CINC-COVINGTON CLOUDY    77  69  76 N7        29.95S
CINC-LUNKEN    FAIR      77  72  84 NW8       29.94S
HAMILTON       HVY RAIN  72  68  87 N6        29.98R FOG
DAYTON         PTSUNNY   80  68  66 N10       29.96S
WRIGHT-PAT AFB PTSUNNY   81  69  65 NW7       29.94S
DAYTON GENERAL FAIR      73  70  90 W3        29.95S
WILMINGTON     LGT RAIN  75  71  87 N7        29.94F
$$

OHZ036-037-039>041-045>050-054>059-063>069-073>076-082>088-010000-
  CENTRAL AND SOUTHEAST OHIO

CITY           SKY/WX    TMP DP  RH WIND       PRES   REMARKS
COLUMBUS       CLOUDY    75  70  84 S6        29.93S
OSU AIRPORT    PTSUNNY   77  67  71 NE7       29.94R
BOLTON FIELD   PTSUNNY   73  72  94 CALM      29.95S
RICKENBACK AFB LGT RAIN  74  71  88 W5        29.93S
NEWARK         CLOUDY    74  70  87 CALM      29.94R
MARION         FAIR      80  68  66 N7        29.95S
LANCASTER      CLOUDY    74  72  93 CALM      29.94S
ZANESVILLE     FAIR      74  69  85 N3        29.94S
NEW PHILLY     LGT RAIN  73  69  87 CALM      29.95S
$$




USA.gov is the U.S. government's official web portal to all federal, state and local government web resources and services.